Miscellaneous Local Product
Issued by NWS North Platte, NE

Home | Current Version | Previous Version | Graphics & Text | Print | Product List | Glossary On
Versions: 1 2 3 4 5 6 7 8 9 10 11 12 13 14 15 16 17 18 19 20 21 22 23 24 25 26 27 28 29 30 31 32 33 34 35 36 37 38 39 40 41 42 43 44 45 46 47 48 49 50
000
AXUS43 KLBF 292110
MISLBF


WESTERN AND NORTH CENTRAL NEBRASKA HOURLY WEATHER ROUNDUP
NATIONAL WEATHER SERVICE NORTH PLATTE NE
300 PM CST THU JAN 29 2015

***STATIONS NOT REPORTING VARIABLES SUCH AS SKY/WEATHER OR
PRESSURE ARE PROVIDED BY THE NEBRASKA DEPARTMENT OF
ROADS...RAWS...AND APRS NETWORKS...AND ARE NOT UNDER
NATIONAL WEATHER SERVICE QUALITY CONTROL***

...OBSERVATIONS IN AND NEAR THE EASTERN PANHANDLE OF NEBRASKA...

CITY           SKY/WX    TMP DP  RH WIND       PRES   REMARKS
PINE RIDGE     SUNNY     45  10  24 NW5       30.42F
CHADRON        SUNNY     45  17  32 CALM      30.42F
ALLIANCE       SUNNY     43  13  29 CALM      30.42F
SIDNEY         SUNNY     46   9  22 N8        30.44F
WHITECLAY        N/A     41   7  24 NW6         N/A
CRESCENT LAKE    N/A     45  13  27 N6G14       N/A
LISCO            N/A     48  -2  12 W3          N/A
LEWELLEN         N/A     45  11  24 W6          N/A
$$

...OBSERVATIONS IN NORTH CENTRAL NEBRASKA...

CITY           SKY/WX    TMP DP  RH WIND       PRES   REMARKS
VALENTINE      SUNNY     44  18  35 N13       30.43F
THEDFORD       SUNNY     45  19  35 NW9G16    30.44S
AINSWORTH      SUNNY     42  20  42 NW12G20   30.43S
O`NEILL        SUNNY     42  26  51 NW13G23   30.43R
ORD            SUNNY     45  21  38 NW17      30.42S
BROKEN BOW     SUNNY     45  22  40 N16       30.43F
BROWNLEE         N/A     45  19  35 NW14        N/A
VALENTINE NWR    N/A     43  20  39 N12         N/A
SPRINGVIEW       N/A     42  24  49 N12G18      N/A
HALSEY           N/A     45  19  34 NW8G15      N/A
BREWSTER         N/A     43  19  37 N14         N/A
ROSE             N/A     44  25  47 SW9         N/A
NEWPORT          N/A     41  23  48 NW10        N/A
SARGENT          N/A     44  23  43 N5G13       N/A
COMSTOCK         N/A     47  22  38 W13         N/A
CHAMBERS         N/A     43  23  44 N3G16       N/A
EWING            N/A     41  29  61 N10         N/A
$$

...OBSERVATIONS IN SOUTHWEST NEBRASKA AND FAR NORTHEAST COLORADO...

CITY           SKY/WX    TMP DP  RH WIND       PRES   REMARKS
WRAY           FAIR      50  13  23 N8        30.45F
HOLYOKE        FAIR      48  14  25 NW10      30.45F
IMPERIAL       SUNNY     45  22  40 N12       30.46F
OGALLALA       SUNNY     45  19  35 N9        30.45S
NORTH PLATTE   SUNNY     46  19  34 NW10      30.44F
MCCOOK         SUNNY     47  22  37 N13       30.46F
LEXINGTON      SUNNY     46  22  39 N10G20    30.44F
BRADY            N/A     45  23  41 CALM        N/A
GOTHENBURG       N/A     44  19  36 N8          N/A
CALLAWAY         N/A     44  24  45 NW9         N/A
$$

...NORTH PLATTE AREA...

CITY           SKY/WX    TMP DP  RH WIND       PRES   REMARKS
AIRPORT        SUNNY     46  19  34 NW10      30.44F
DOWNTOWN         N/A     44  20  38 NW3G12      N/A
$$

...SOME WEATHER OBSERVATIONS FROM AROUND THE REGION...

CITY           SKY/WX    TMP DP  RH WIND       PRES   REMARKS
DENVER         PTSUNNY   47  24  40 SE12      30.42F
LARAMIE        SUNNY     39  26  59 SE10      30.35F WCI  32
CHEYENNE       MOSUNNY   42  23  46 S6        30.39F
SCOTTSBLUFF    SUNNY     49  19  30 CALM      30.42F
RAPID CITY     SUNNY     46  12  25 NE3       30.41F
PIERRE         SUNNY     39  21  48 NW13      30.45S WCI  31
WINNER         FAIR      42  23  46 N13       30.44F
SIOUX FALLS    CLOUDY    30  21  69 NW21G30   30.43R WCI  17
OMAHA          CLOUDY    38  25  59 N18G29    30.42R WCI  28
GRAND ISLAND   SUNNY     45  23  42 N15       30.44S
KANSAS CITY    PTSUNNY   41  27  57 NW15G24   30.38R
WICHITA        MOSUNNY   51  25  36 N21G26    30.44R
HAYS           SUNNY     46  21  36 NW13      30.47S
LIBERAL        SUNNY     50  27  40 N16       30.48F
GOODLAND       SUNNY     47  20  34 N13       30.46F
$$



USA.gov is the U.S. government's official web portal to all federal, state and local government web resources and services.